Location: Haravilliers
(49.1733°N, 2.0548°E)
Time: 00:20:38
(UTC+00:00)

Daily predictions for brighter satellites

Satellite Brightness Start Highest point End
(mag) Time Altitude Azimuth Time Altitude Azimuth Time Altitude Azimuth
SL-16 R/B 4.1 03:46:48 22° NNE 03:47:37 23° NE 03:52:05 10° E
Cosmos 2082 Rocket 3.8 03:49:31 26° SE 03:51:08 31° ESE 03:56:00 10° NE
COSMOS 2455 3.5 03:58:09 52° ENE 03:58:09 52° ENE 04:03:24 10° SE
ATLAS 3B R/B 4.2 03:59:03 27° N 03:59:30 28° N 04:06:02 10° NE
Cosmos 1980 Rocket 3.4 04:14:14 31° SSE 04:14:14 31° SSE 04:17:03 10° SSE
Cosmos 2369 4.0 04:16:15 65° E 04:16:15 65° E 04:21:33 10° SE
COSMO-SKYMED 1 4.4 04:18:37 10° ESE 04:22:04 26° ENE 04:22:50 25° NE
Aureole 1 Rocket 4.3 04:20:44 53° NNW 04:22:37 82° ENE 04:30:07 10° SSE
Cosmos 2180 Rocket 4.5 04:23:51 44° N 04:26:00 81° E 04:32:19 10° SSE
Cosmos 1937 Rocket 4.3 04:25:55 43° NNE 04:26:45 47° ENE 04:31:40 10° SE
Cosmos 372 Rocket 4.2 04:33:38 62° SE 04:33:38 62° SE 04:37:51 10° SSE
Cosmos 2333 Rocket 3.5 04:33:56 23° N 04:36:48 35° NE 04:42:04 10° ESE
NOSS 3-1 (A) 4.5 04:37:46 32° NNW 04:40:48 51° NE 04:48:58 10° ESE
Cosmos 1606 Rocket 3.9 04:43:12 64° E 04:43:12 64° E 04:47:28 10° SSE
Cosmos 2360 Rocket 3.8 04:40:11 17° N 04:43:28 29° NE 04:48:17 10° ESE
Cosmos 2142 Rocket 4.3 04:47:06 53° NW 04:48:27 68° W 04:54:36 10° S
USA 234 3.8 04:49:47 10° ENE 04:55:57 45° N 04:57:47 37° NW
Helios 1A Rocket 3.6 04:52:59 10° SE 04:55:47 42° E 04:55:47 42° E
SeaSat 1 4.2 04:56:34 10° NNE 04:58:20 19° N 04:58:20 19° N
SL-4 R/B 2.9 05:03:15 33° ENE 05:03:15 33° ENE 05:05:17 10° E
Cosmos 2219 Rocket 4.0 04:58:08 12° N 05:02:15 26° NE 05:06:54 10° E
ATLAS 5 CENTAUR R/B 3.6 05:05:56 11° NNE 05:05:56 11° NNE 05:06:12 10° NNE
Cosmos 2322 Rocket 3.3 05:01:43 17° NNW 05:05:42 42° NE 05:11:04 10° ESE
Cosmos 1726 Rocket 3.4 05:08:07 42° N 05:09:33 87° E 05:13:48 10° S
Meteor 2-3 Rocket 4.0 05:05:21 10° S 05:11:02 69° E 05:16:42 10° NNE
Cosmos 489 Rocket 4.5 05:08:43 10° SSW 05:15:02 85° ESE 05:21:21 10° NNE
CZ-4 R/B 3.7 05:10:38 10° NNE 05:15:19 86° ESE 05:19:56 10° SSW
Nadezhda 4 Rocket 3.9 05:09:45 10° SSW 05:16:04 75° W 05:22:22 10° N
Cosmos 1428 Rocket 4.4 05:10:56 10° S 05:17:09 86° W 05:23:30 10° N
NOSS 2-1 (D) 3.8 05:17:47 44° SW 05:17:47 44° SW 05:21:48 10° SSE
Cosmos 2237 4.1 05:15:45 39° NW 05:17:49 65° WSW 05:23:26 10° SSE
CZ-2C R/B 4.3 05:14:49 10° N 05:16:11 17° NNW 05:16:11 17° NNW
USA 59 Rocket 0.5 05:20:26 39° SW 05:20:26 39° SW 05:24:29 10° SSE
Cosmos 841 Rocket 3.4 05:17:46 10° SSW 05:23:00 81° WNW 05:28:18 10° NNE
COSMOS 2406 3.2 05:17:51 10° SSW 05:23:32 81° ESE 05:29:14 10° NNE
NOSS 2-1 (E) 3.5 05:25:12 48° SW 05:25:16 48° SW 05:29:41 10° SSE
NOSS 3-1 (C) 4.0 05:21:26 30° NW 05:25:24 68° SW 05:34:08 10° SSE
Cosmos 1833 Rocket 4.2 05:28:01 19° NNW 05:28:01 19° NNW 05:31:12 10° N
Cosmos 1892 Rocket 3.5 05:25:38 10° S 05:30:00 89° E 05:34:25 10° N
Cosmos 2195 Rocket 4.4 05:24:14 10° S 05:30:30 85° W 05:36:52 10° N
SL-16 R/B 2.1 05:28:40 22° NNW 05:32:26 84° WSW 05:38:06 10° SSE
Cosmos 2082 Rocket 2.3 05:31:29 22° WSW 05:34:58 51° NW 05:40:27 10° NNE
IRS-1D 3.6 05:37:36 10° N 05:42:25 51° WNW 05:47:18 10° SW
COSMOS 2455 3.5 05:41:19 28° WNW 05:43:13 34° WSW 05:48:31 10° S
Cosmos 1898 Rocket 4.2 05:42:42 30° WNW 05:43:51 33° WSW 05:48:29 10° SSW
NOSS 2-1 (C) 4.3 05:44:49 28° WSW 05:45:16 29° SW 05:49:15 10° S
Meteor 2-20 4.4 05:39:16 10° NNW 05:45:20 68° W 05:51:22 10° S
Orbus 7S? 3.1 05:47:32 36° NNW 05:48:13 47° NNE 05:50:51 10° ESE
Cosmos 405 Rocket 4.2 05:45:43 10° SSE 05:48:41 33° E 05:51:40 10° NNE
ATLAS 3B R/B 4.0 05:46:18 14° NW 05:52:32 38° NNE 05:59:36 10° E
Cosmos-2242 2.8 05:49:41 10° NNW 05:53:56 73° W 05:58:06 10° S
Cosmos 1980 Rocket 4.0 05:56:02 13° WSW 05:56:02 13° WSW 05:57:21 10° SW
Cosmos 2278 3.7 05:51:02 16° NW 05:55:31 66° WSW 06:01:06 10° SSE
COSMO-SKYMED 1 3.1 05:53:30 10° SSW 05:57:15 34° W 05:59:09 23° NW
Cosmos 2058 Rocket 3.1 05:56:42 10° NNW 06:01:05 57° W 06:05:23 10° S
Cosmos 1484 Rocket 2.3 05:57:42 10° N 06:01:07 70° WNW 06:04:29 10° SSW
Cosmos 1627 Rocket 4.4 05:57:01 10° SSW 06:03:03 62° WNW 06:09:09 10° N
Meteor 2-2 Rocket 4.2 05:58:43 10° NNW 06:04:20 63° W 06:10:01 10° S
Okean 1 3.0 06:03:40 12° NNW 06:06:51 56° W 06:10:19 10° S
Meteor 2-20 Rocket 4.3 06:01:48 10° NNW 06:07:32 64° W 06:13:09 10° S
Cosmos 1937 Rocket 4.4 06:06:02 19° WNW 06:08:21 27° W 06:12:37 10° SSW
ARIANE 5 R/B 3.7 06:08:09 10° NNE 06:13:12 48° E 06:18:14 10° S
Cosmos 2285 Rocket 4.0 06:07:08 10° NNW 06:13:32 87° WSW 06:19:57 10° SSE
ATLAS 2AS CENTAUR R/B 4.4 06:08:43 10° S 06:15:04 37° ESE 06:21:17 10° NE
SL-08 ROCKET BODY 4.5 06:10:39 10° S 06:16:28 82° E 06:22:20 10° N
IRIDIUM 104 4.3 06:13:07 10° S 06:18:20 81° W 06:23:36 10° N
Cosmos 2333 Rocket 2.5 06:15:59 11° NW 06:21:18 50° WSW 06:26:48 10° S
SAR-Lupe-4 4.3 06:19:58 10° NNE 06:23:30 56° ESE 06:26:59 10° S
SMAP 3.2 06:19:47 10° NNE 06:24:29 83° ESE 06:29:09 10° SSW
IRIDIUM 114 4.3 06:22:18 10° SSW 06:27:29 68° W 06:32:43 10° N
Cosmos 2360 Rocket 2.3 06:22:18 10° NNW 06:27:52 63° WSW 06:33:23 10° SSE
Helios 1A Rocket 4.3 06:27:18 10° WSW 06:29:01 13° W 06:29:20 13° W
Landsat 7 4.0 06:25:45 10° NNE 06:30:26 78° ESE 06:35:06 10° S
NOSS 3-1 (A) 4.3 06:25:10 11° NW 06:31:58 57° WSW 06:40:36 10° SSE
Cosmos 2026 Rocket 4.4 06:27:10 10° SW 06:32:43 37° WNW 06:38:21 10° N
CBERS-1 4.0 06:28:07 10° N 06:33:08 59° WNW 06:38:07 10° SSW
IGS 5A 3.7 06:30:13 10° N 06:33:59 40° WNW 06:37:44 10° SW
Cosmos 1814 Rocket 4.0 06:28:58 10° SSW 06:34:12 78° WNW 06:39:32 10° NNE
BREEZE-M DEB (TANK) 2.8 06:34:37 13° W 06:36:01 33° SSW 06:38:25 10° SE
Cosmos 2237 Rocket 4.0 06:31:59 10° N 06:36:24 23° NE 06:40:48 10° E
IRIDIUM 103 4.4 06:31:34 10° SSW 06:36:41 57° W 06:41:51 10° N
USA 234 3.6 06:31:58 10° E 06:38:24 60° NNE 06:44:50 10° WNW
SL-4 R/B 1.3 06:36:58 12° WNW 06:39:51 79° SSW 06:43:01 10° ESE
Cosmos 1758 Rocket 3.6 06:36:11 10° SSW 06:40:34 62° WNW 06:44:57 10° N
Cosmos 1733 2.3 06:39:45 10° SW 06:41:24 26° WNW 06:43:03 10° NNW
Cosmos 1743 2.2 06:38:24 10° SSW 06:41:38 72° W 06:44:53 10° N
IRS-1C 4.3 06:37:04 10° NNE 06:42:26 79° ESE 06:47:45 10° SSW
Thor Agena Rocket 3.5 06:40:37 10° N 06:45:39 65° WNW 06:50:37 10° SSW
BREEZE-M DEB (TANK) 3.2 06:42:58 10° W 06:45:48 88° N 06:53:45 10° E
Cosmos 2219 Rocket 2.2 06:41:06 10° NNW 06:46:46 73° WSW 06:52:22 10° SSE
Cosmos 192 4.3 06:42:09 10° NNW 06:47:06 82° WSW 06:52:00 10° SSE
Cosmos 2322 Rocket 2.8 06:44:27 10° NW 06:49:43 39° WSW 06:54:55 10° S
S3M 4.0 06:44:13 10° N 06:50:28 86° W 06:56:36 10° S
Cosmos 1553 Rocket 4.4 06:47:01 10° NNW 06:52:58 43° W 06:58:56 10° SSW
USA 229 4.4 06:48:08 10° NW 06:55:21 62° NE 07:03:20 10° ESE
USA 229 DEB 4.4 06:48:13 10° NW 06:55:26 62° NE 07:03:25 10° ESE
Cosmos 2322 4.2 06:49:57 10° NNW 06:55:34 61° ENE 07:01:10 10° SE
SJ-12 3.8 06:54:03 10° N 06:57:49 59° WNW 07:01:34 10° SSW
SKYMED 3 4.4 06:54:40 10° SSE 06:58:42 86° W 07:02:44 10° NNW
Resurs 01 Rocket 4.4 06:56:17 10° NE 06:59:40 21° E 07:03:01 10° SE
YAOGAN 1 3.8 06:56:38 10° NNE 07:00:46 47° E 07:04:53 10° S
